Simultaneous Nadir Overpasses (SNOs) Predictions

Prediction of SNOs between GOES-15 and LANDSAT-8 Satellite Orbit:

Table of predicted SNOs for the next 14.0 days since TLE Epoch: 9/21/2024
Index Date Time (GOES-15) GOES-15 Lat,Lon LANDSAT-8 Lat,Lon Distance(km) Time Diff (sec)
1 09/21/2024 18:05:43 0.32, 61.38 0.28, 61.25 15.10 80
2 09/23/2024 17:56:11 0.31, 61.37 0.94, 64.20 322.75 80
3 09/24/2024 06:14:46 -0.32, 61.25 0.16, 59.05 249.78 80
4 09/26/2024 06:05:13 -0.31, 61.24 -0.48, 62.02 87.94 80
5 09/28/2024 05:52:59 -0.31, 61.24 -1.10, 64.99 425.89 80
6 09/28/2024 18:14:22 0.32, 61.36 -0.03, 59.81 177.45 80
7 09/30/2024 17:59:28 0.32, 61.36 0.63, 62.77 160.68 80
8 10/01/2024 06:20:42 -0.32, 61.24 0.45, 57.62 412.67 80
9 10/02/2024 17:47:13 0.31, 61.36 1.27, 65.74 498.83 80
10 10/03/2024 06:08:27 -0.32, 61.24 -0.19, 60.59 74.35 80
